Location: C�mpuri de-Sus
(45.9500°N, 22.5500°E)
Time: 04:26:41
(UTC+00:00)

SL-08 RB Rocket - Pass Details

Date: 24 October 2021
Orbit: 646 x 683 km, 97.8° (Epoch: 04 December)

Event Time Altitude Azimuth Distance (km) Brightness Sun altitude
Rises 16:33:59 0° 148° (SSE) 2,986 6.8 -12.0°
Reaches altitude 10° 16:36:15 10° 142° (SE) 2,084 5.9 -12.4°
Maximum altitude 16:40:35 45° 70° (ENE) 920 4.0 -13.2°
Drops below altitude 10° 16:44:59 10° 359° (N) 2,121 6.3 -14.0°
Sets 16:47:19 0° 353° (N) 3,045 7.2 -14.4°
